[[{"header":{"parameterUnit":"m.s-1","parameterCategory":1,"la1":30.2991,"la2":30.254,"lo1":-89.0895,"lo2":-89.0444,"dy":0.0017,"dx":0.0017,"nx":28,"ny":28,"refTime":"2024-07-29T03:00:00:Z","depth":0,"parameterNumber":2,"parameterNumberName":"U-component_of_WINDS"},"data":[0,0,0,0,0,0,0,0,0,0,0,0,0,0,0,0,0,0,0,0,0,0,0,0,0,0,0,0,0,0,0,0,0,0,0,0,0,0,0,0,0,0,0,0,0,0,0,0,0,0,0,0,0,0,0,0,0,0,2.0877,2.0879,0,2.1029,2.103,2.1032,2.1053,2.1051,2.105,2.1048,2.1209,2.1214,2.122,0,0,0,0,0,0,0,0,0,0,0,0,0,2.061,2.0615,2.0877,2.0879,2.0881,2.1028,2.103,2.1032,2.1053,2.1051,2.1049,2.1048,2.1207,2.1214,2.122,0,0,0,0,0,0,0,0,0,0,0,0,0,2.0741,2.0617,2.0877,2.0909,2.0913,2.1028,2.103,2.1033,2.1053,2.1051,2.1049,2.1047,2.1205,2.1213,2.1221,2.1317,0,0,2.1247,2.1251,0,0,0,0,0,0,0,0,2.0733,2.075,2.0902,2.0907,2.0912,2.1019,2.0995,2.1128,2.1054,2.1,2.1048,2.1046,2.1148,2.1161,2.1194,2.1324,2.1331,2.1248,2.1253,2.1257,2.1259,0,0,0,0,0,0,0,2.0724,2.0744,2.0937,2.0904,2.091,2.0917,2.0933,2.1021,2.1085,2.1005,2.1006,2.1024,2.115,2.1186,2.1198,2.1333,2.1248,2.1255,2.126,2.1264,2.1548,2.155,0,0,0,0,0,0,2.0709,2.0736,2.0932,2.0942,2.0815,2.0923,2.0941,2.0987,2.1084,2.1096,2.1026,2.1024,2.1173,2.1188,2.1204,2.1321,2.1256,2.1264,2.1269,2.1545,2.1548,2.1551,0,0,0,0,0,0,2.0703,2.0726,2.0926,2.084,2.0866,2.093,2.0981,2.0991,2.1027,2.1099,2.1111,2.105,2.1172,2.1192,2.1288,2.1326,2.1268,2.1276,2.1542,2.1546,2.155,2.1555,0,0,0,0,0,0,2.0695,2.0724,2.0759,2.084,2.087,2.1006,2.0984,2.0996,2.1041,2.1041,2.1125,2.1138,2.1171,2.1275,2.1296,2.1337,2.1282,2.1539,2.1544,2.1549,2.1552,2.1559,2.1565,0,0,0,0,0,2.0685,2.0756,2.0761,2.0785,2.0916,2.1008,2.1026,2.1062,2.1044,2.1081,2.1127,2.1135,2.1319,2.1285,2.1309,2.1353,2.1537,2.1543,2.1548,2.1549,2.1557,2.1564,0,0,0,0,0,0,2.0681,2.0768,2.0774,2.0873,2.0933,2.1012,2.106,2.107,2.1138,2.1135,2.1178,2.1197,2.1291,2.1332,2.1292,2.1449,2.1427,2.1437,2.1419,2.1427,2.1434,2.1422,2.1289,0,0,0,0,0,2.0691,2.0757,2.083,2.0911,2.094,2.0995,2.1036,2.1059,2.1123,2.1149,2.1203,2.1267,2.1339,2.1386,2.1456,2.1558,2.1577,2.16,2.1606,2.1611,2.162,2.1676,2.1687,2.157,2.157,2.1569,0,0,2.0713,2.0769,2.0809,2.0911,2.096,2.1029,2.1016,2.109,2.1141,2.1161,2.1254,2.1295,2.137,2.1468,2.1515,2.1505,2.1656,2.1618,2.1622,2.1628,2.1683,2.1694,2.1703,2.1573,2.1573,2.1572,0,0,2.0789,2.0838,2.0909,2.0958,2.1032,2.1067,2.1084,2.1162,2.1189,2.1282,2.1298,2.1362,2.1485,2.1537,2.1579,2.1673,2.1682,2.1695,2.1728,2.1782,2.1791,2.18,2.1832,2.1843,2.1704,2.1704,2.1704,0,2.0808,2.091,2.0945,2.1018,2.1062,2.1081,2.1154,2.1201,2.1295,2.1326,2.1313,2.1468,2.1519,2.163,2.1652,2.1687,2.1708,2.1685,2.1787,2.1796,2.1804,2.1835,2.1848,2.1705,2.1705,2.1704,2.1704,0,2.0929,2.1,2.1049,2.1137,2.1187,2.126,2.1307,2.1354,2.1372,2.1409,2.1503,2.1566,2.1648,2.1677,2.1696,2.179,2.1781,2.1778,2.1755,2.1815,2.1846,2.1858,2.1706,2.1706,2.1705,2.1705,0,0,2.1006,2.1111,2.1128,2.1167,2.125,2.1306,2.138,2.1459,2.1498,2.1562,2.1625,2.1728,2.1724,2.1773,2.1798,2.1845,2.1914,2.1836,2.1838,2.1847,2.202,2.2022,2.2035,2.1921,2.1923,2.1925,2.2014,0,2.109,2.122,2.1253,2.1364,2.143,2.1448,2.1513,2.1571,2.1607,2.1669,2.1711,2.1783,2.1773,2.1802,2.185,2.1895,2.1949,2.189,2.198,2.1983,2.196,2.2051,2.2054,2.2134,2.2026,2.2028,2.203,0,2.1206,2.1269,2.1386,2.1458,2.1487,2.1544,2.1618,2.1677,2.1744,2.1767,2.182,2.184,2.1919,2.1892,2.2001,2.1959,2.1999,2.2027,2.2031,2.204,2.2009,2.2062,2.2161,2.2172,2.2049,2.2047,2.2046,0,2.1248,2.1364,2.1448,2.1481,2.1568,2.1608,2.1646,2.171,2.1755,2.1821,2.185,2.1925,2.1966,2.2024,2.2064,2.2041,2.2169,2.2146,2.2191,2.2189,2.2216,2.2214,2.2321,2.2243,2.2243,2.2242,2.2242,0,2.1338,2.1408,2.1468,2.152,2.1599,2.1638,2.1716,2.1755,2.1812,2.1872,2.1894,2.1951,2.2001,2.2064,2.2097,2.2181,2.22,2.2221,2.2229,2.2219,2.2216,2.2244,2.2239,2.2246,2.2245,2.2244,2.2244,0,2.1399,2.1442,2.1535,2.1609,2.1629,2.1684,2.1748,2.18,2.1837,2.1913,2.1933,2.1991,2.2067,2.2113,2.221,2.2232,2.2324,2.233,2.2301,2.2304,2.2345,2.234,2.2474,2.2493,2.2403,2.2404,2.2405,0,2.1453,2.1507,2.1586,2.1627,2.1665,2.1732,2.1777,2.1817,2.1864,2.1942,2.1984,2.2061,2.2124,2.2245,2.2297,2.2371,2.2378,2.242,2.239,2.2377,2.2377,2.2373,2.2378,2.2425,2.2426,2.2426,2.2427,0,2.1543,2.1561,2.1625,2.1696,2.1748,2.1807,2.1865,2.1897,2.1948,2.1999,2.2075,2.2124,2.2222,2.2298,2.2376,2.2417,2.243,2.2436,2.245,2.2439,2.242,2.243,2.2314,2.2433,2.2432,2.2432,2.2431,2.2431,2.1602,2.165,2.1713,2.1783,2.183,2.1884,2.1935,2.1977,2.2041,2.2122,2.2143,2.2223,2.2288,2.2393,2.2436,2.25,2.2494,2.2514,2.2519,2.2524,2.2524,2.241,2.2515,2.2515,2.2515,2.2515,2.2515,0,2.1692,2.1733,2.1797,2.1876,2.1931,2.1937,2.2002,2.2048,2.2117,2.2176,2.2237,2.2324,2.2398,2.2455,2.253,2.2571,2.2579,2.2589,2.2586,2.2595,2.2526,2.2505,2.2581,2.2581,2.2581,2.2581,2.2581,2.2581,2.1746,2.1827,2.1853,2.1959,2.2,2.2077,2.2113,2.2162,2.2209,2.2305,2.2365,2.2401,2.246,2.2539,2.2607,2.2622,2.2648,2.2657,2.2673,2.2608,2.26,2.2593,2.2574,2.2663,2.2663,2.2737,2.2738,2.2739]},{"header":{"parameterUnit":"m.s-1","parameterCategory":1,"la1":30.2991,"la2":30.254,"lo1":-89.0895,"lo2":-89.0444,"dy":0.0017,"dx":0.0017,"nx":28,"ny":28,"refTime":"2024-07-29T03:00:00:Z","depth":0,"parameterNumber":3,"parameterNumberName":"V-component_of_WINDS"},"data":[0,0,0,0,0,0,0,0,0,0,0,0,0,0,0,0,0,0,0,0,0,0,0,0,0,0,0,0,0,0,0,0,0,0,0,0,0,0,0,0,0,0,0,0,0,0,0,0,0,0,0,0,0,0,0,0,0,0,3.9069,3.9069,0,3.9082,3.9082,3.9082,3.9096,3.9096,3.9096,3.9096,3.9107,3.9107,3.9107,0,0,0,0,0,0,0,0,0,0,0,0,0,3.9051,3.9051,3.9069,3.9069,3.9069,3.9082,3.9082,3.9082,3.9096,3.9096,3.9096,3.9096,3.9107,3.9107,3.9107,0,0,0,0,0,0,0,0,0,0,0,0,0,3.9061,3.9051,3.9069,3.9077,3.9078,3.9082,3.9082,3.9082,3.9096,3.9096,3.9096,3.9096,3.9107,3.9107,3.9107,3.9103,0,0,3.9108,3.9108,0,0,0,0,0,0,0,0,3.906,3.9061,3.9076,3.9077,3.9078,3.9088,3.908,3.9089,3.9096,3.9089,3.9096,3.9097,3.91,3.9101,3.9103,3.9103,3.9104,3.9108,3.9108,3.9108,3.9108,0,0,0,0,0,0,0,3.906,3.9061,3.9074,3.9076,3.9077,3.9079,3.9081,3.9082,3.9093,3.909,3.9091,3.9092,3.9101,3.9103,3.9103,3.9104,3.9108,3.9108,3.9108,3.9108,3.9099,3.9099,0,0,0,0,0,0,3.9058,3.906,3.9073,3.9074,3.907,3.9079,3.9081,3.9084,3.9093,3.9094,3.9092,3.9093,3.9102,3.9103,3.9104,3.9098,3.9108,3.9108,3.9108,3.91,3.9099,3.9099,0,0,0,0,0,0,3.9058,3.9059,3.9073,3.9068,3.907,3.9079,3.9082,3.9084,3.9086,3.9095,3.9096,3.9092,3.9102,3.9103,3.9103,3.9098,3.9108,3.9109,3.91,3.9099,3.9099,3.9086,0,0,0,0,0,0,3.9057,3.9059,3.9058,3.9068,3.907,3.9073,3.9082,3.9084,3.9087,3.9088,3.9095,3.9097,3.9103,3.9102,3.9103,3.9099,3.9109,3.91,3.91,3.9099,3.9087,3.9085,3.9084,0,0,0,0,0,3.9056,3.9054,3.9058,3.906,3.9069,3.9073,3.9074,3.9082,3.9086,3.9085,3.909,3.9096,3.9099,3.9102,3.9103,3.9099,3.9101,3.91,3.9099,3.9088,3.9086,3.9084,0,0,0,0,0,0,3.9044,3.9056,3.906,3.9061,3.9066,3.9075,3.9074,3.908,3.9083,3.9084,3.9092,3.9094,3.9092,3.9095,3.9099,3.9093,3.91,3.91,3.9091,3.9089,3.9088,3.9087,3.9109,0,0,0,0,0,3.9041,3.9044,3.9054,3.9054,3.9056,3.9064,3.9066,3.9072,3.9076,3.9078,3.9084,3.9087,3.9088,3.9089,3.9091,3.9087,3.9088,3.9085,3.9083,3.9082,3.9081,3.9077,3.9075,3.9096,3.9096,3.9096,0,0,3.9036,3.9043,3.9044,3.9051,3.9056,3.9057,3.9066,3.9067,3.9068,3.9078,3.9078,3.9082,3.9086,3.9083,3.9082,3.9086,3.9075,3.9081,3.9079,3.9079,3.9076,3.9074,3.9072,3.9096,3.9096,3.9096,0,0,3.9027,3.9033,3.9033,3.9036,3.9043,3.9048,3.9048,3.9056,3.9059,3.9059,3.9066,3.9066,3.9068,3.9071,3.9072,3.9061,3.9066,3.9062,3.9053,3.9049,3.9048,3.9046,3.9041,3.9039,3.9061,3.9061,3.9061,0,3.9019,3.9023,3.9031,3.9032,3.9034,3.9044,3.9042,3.9045,3.9052,3.9052,3.9056,3.9058,3.9062,3.9059,3.9056,3.9058,3.9056,3.9061,3.9047,3.9046,3.9045,3.904,3.9038,3.906,3.906,3.906,3.906,0,3.9012,3.9014,3.9013,3.9019,3.9021,3.902,3.9028,3.9028,3.9033,3.9037,3.9036,3.904,3.9042,3.9042,3.9047,3.9039,3.9041,3.9046,3.9053,3.9042,3.9037,3.9035,3.9059,3.9059,3.9059,3.906,0,0,3.8997,3.9007,3.9006,3.9008,3.9015,3.9016,3.9014,3.9017,3.9016,3.902,3.9018,3.9019,3.9023,3.9025,3.9029,3.9026,3.9015,3.9032,3.9032,3.9027,3.9005,3.9001,3.8998,3.9019,3.9018,3.9018,3.9004,0,3.8988,3.8989,3.8995,3.8993,3.8993,3.9001,3.9,3.9003,3.9006,3.9006,3.901,3.901,3.9016,3.9017,3.9014,3.9017,3.9011,3.9018,3.9016,3.9015,3.9014,3.8996,3.8992,3.8979,3.9003,3.9002,3.9002,0,3.8979,3.8982,3.8979,3.8984,3.8985,3.8984,3.8985,3.8986,3.8988,3.8991,3.8991,3.8997,3.8994,3.9001,3.8996,3.9001,3.9,3.9001,3.9001,3.9,3.9008,3.8994,3.8975,3.8973,3.9,3.9,3.9,0,3.8967,3.897,3.8968,3.897,3.8976,3.8974,3.8977,3.898,3.898,3.8981,3.8981,3.8981,3.8981,3.898,3.8984,3.8989,3.8978,3.8986,3.8979,3.8979,3.8976,3.8976,3.8956,3.8977,3.8977,3.8977,3.8977,0,3.8957,3.8954,3.8963,3.8962,3.8959,3.8966,3.8962,3.8965,3.8967,3.8965,3.8972,3.897,3.8976,3.8974,3.8977,3.8971,3.8971,3.8972,3.8973,3.8971,3.8971,3.8971,3.8971,3.8976,3.8976,3.8977,3.8977,0,3.8943,3.8949,3.8947,3.8952,3.8953,3.8951,3.8955,3.8953,3.8956,3.8954,3.8953,3.8958,3.8956,3.896,3.8958,3.896,3.8952,3.8955,3.8951,3.8952,3.8944,3.8945,3.8922,3.8919,3.8943,3.8942,3.8942,0,3.8936,3.8934,3.8939,3.8939,3.894,3.894,3.894,3.8946,3.8945,3.8946,3.8944,3.8942,3.8942,3.8937,3.8939,3.8937,3.8939,3.8931,3.8939,3.8937,3.8938,3.8937,3.8936,3.893,3.893,3.8929,3.8929,0,3.8922,3.8925,3.8925,3.8926,3.8925,3.8926,3.8927,3.8926,3.8932,3.893,3.8928,3.8927,3.8925,3.8923,3.8921,3.8921,3.8925,3.8927,3.8925,3.8923,3.8921,3.892,3.8946,3.8927,3.8927,3.8927,3.8928,3.8928,3.8911,3.8909,3.8912,3.8911,3.8912,3.8913,3.8911,3.8913,3.8912,3.8911,3.8914,3.891,3.891,3.8909,3.8908,3.8905,3.8908,3.8905,3.8905,3.8904,3.8902,3.8921,3.8904,3.8904,3.8904,3.8904,3.8905,0,3.8897,3.8899,3.8898,3.8899,3.8898,3.8902,3.8903,3.8901,3.8898,3.8898,3.8897,3.8893,3.889,3.8891,3.8888,3.8885,3.8886,3.8884,3.8884,3.8883,3.89,3.8901,3.8882,3.8882,3.8882,3.8882,3.8882,3.8882,3.889,3.8887,3.8889,3.8885,3.8886,3.8883,3.8883,3.8882,3.8882,3.8878,3.8876,3.8877,3.8876,3.8873,3.8869,3.887,3.8868,3.8864,3.8865,3.888,3.8882,3.8885,3.8886,3.8864,3.8864,3.8848,3.8848,3.8848]}]]